User: anonymous   Login
Location: Home
(42.5358°N, 72.7383°W)
Time: 15:54:12
(UTC-05:00)
Language:

ISS - Orbit

View from above orbital plane
View from above orbital plane
View from above satellite
View from above satellite

Ground track
Ground track

The orbit data is extracted from the following two-line orbital elements,

1 25544U 98067A   22022.71967684  .00006146  00000-0  11720-3 0  9997
2 25544  51.6450 336.9705 0006781  50.7197   9.8563 15.49592643322621
Epoch (UTC): 22 January 2022 17:16:20
Eccentricity: 0.0006781
inclination: 51.6450°
perigee height: 413 km
apogee height: 422 km
right ascension of ascending node: 336.9705°
argument of perigee: 50.7197°
revolutions per day: 15.49592643
mean anomaly at epoch: 9.8563°
orbit number at epoch: 32262

The dashed part of the orbit path shows where the satellite is in the earth's shadow,  

DLR